Wolf Point, MT

7:14 AM MST on February 25, 2017 (GMT -0700)
Clayton

Weather History for KOLF - November, 2013

Change the Weather History Date:

Tuesday, November 26, 2013

  Actual Average Record
Temperature  
Mean Temperature 12 °F -  
Max Temperature 27 °F 34 °F 66 °F (1998)
Min Temperature -4 °F 10 °F -4 °F (2013)
Degree Days  
Heating Degree Days 53    
Cooling Degree Days 0    
Moisture  
Dew Point 7 °F    
Average Humidity 78    
Maximum Humidity 92    
Minimum Humidity 63    
Precipitation  
Precipitation 0.00 in 0.01 in 0.06 in (2004)
Month to date precipitation 0.20 0.35  
Year to date precipitation 13.24 11.84  
Sea Level Pressure  
Sea Level Pressure 30.46 in    
Wind  
Wind Speed 4 mph (East)    
Max Wind Speed 9 mph    
Max Gust Speed -    
Visibility 9 miles    
Events      
T = Trace of Precipitation, MM = Missing Value Source: NWS Daily Summary

Daily Weather History Graph

Daily Weather History Graph

Search for Another Location

Airport or City:

Trip Planner

Search our weather history database for the weather conditions in past years. The results will help you decide how hot, cold, wet, or windy it might be!

Date:

Astronomy

Nov. 26, 2013 Rise Set
Actual Time 7:25 AM MST 4:13 PM MST
Civil Twilight 6:50 AM MST 4:48 PM MST
Nautical Twilight 6:11 AM MST 5:27 PM MST
Astronomical Twilight 5:34 AM MST 6:04 PM MST
Moon 12:01 AM MST (11/26) 12:49 PM MST (11/26)
Length of Visible Light 9h 58m
Length of Day
8h 48m
Last Quarter, 40% of the Moon is Illuminated
Nov 26
Last Quarter
Dec 2
New
Dec 9
First Quarter
Dec 17
Full
Dec 25
Last Quarter

Hourly Weather History & Observations

Time (MST) Temp. Windchill Dew Point Humidity Pressure Visibility Wind Dir Wind Speed Gust Speed Precip Events Conditions
12:44 AM 14.0 °F 6.5 °F 10.4 °F 86% 30.44 in 10.0 mi West 4.6 mph - N/A   Mostly Cloudy
12:53 AM 14.0 °F 5.1 °F 10.0 °F 84% 30.55 in 10.0 mi West 5.8 mph - N/A   Mostly Cloudy
1:15 AM 12.2 °F 1.7 °F 8.6 °F 85% 30.45 in 10.0 mi WNW 6.9 mph - N/A   Partly Cloudy
1:53 AM 10.9 °F - 7.0 °F 84% 30.56 in 10.0 mi Calm Calm - N/A   Clear
2:53 AM 9.0 °F - 3.0 °F 77% 30.57 in 10.0 mi Calm Calm - N/A   Clear
3:53 AM 5.0 °F - -0.0 °F 80% 30.58 in 10.0 mi Calm Calm - N/A   Clear
4:53 AM 3.0 °F - -2.0 °F 80% 30.61 in 10.0 mi Calm Calm - N/A   Clear
5:53 AM -0.0 °F - -5.1 °F 79% 30.62 in 10.0 mi Calm Calm - N/A   Clear
6:25 AM -0.4 °F - -5.8 °F 78% 30.48 in 10.0 mi Calm Calm - N/A   Partly Cloudy
6:53 AM -2.0 °F - -5.1 °F 87% 30.61 in 10.0 mi Calm Calm - N/A   Mostly Cloudy
7:53 AM -2.0 °F - -7.1 °F 79% 30.63 in 10.0 mi Calm Calm - N/A   Overcast
8:18 AM -0.4 °F - -5.8 °F 78% 30.49 in 1.8 mi Calm Calm - N/A   Haze
8:31 AM 1.4 °F - -2.2 °F 85% 30.49 in 0.8 mi Calm Calm - N/A   Mist
8:37 AM 3.2 °F - 1.4 °F 92% 30.49 in 1.2 mi Calm Calm - N/A   Overcast
8:53 AM 5.0 °F - 1.9 °F 87% 30.62 in 9.0 mi Calm Calm - N/A   Scattered Clouds
9:53 AM 10.9 °F 4.7 °F 7.0 °F 84% 30.61 in 5.0 mi East 3.5 mph - N/A   Partly Cloudy
10:53 AM 16.0 °F 7.4 °F 10.9 °F 81% 30.58 in 10.0 mi East 5.8 mph - N/A   Clear
11:53 AM 21.9 °F 13.4 °F 15.1 °F 75% 30.53 in 10.0 mi SE 6.9 mph - N/A   Clear
12:53 PM 25.0 °F 18.1 °F 15.1 °F 66% 30.49 in 10.0 mi SSE 5.8 mph - N/A   Clear
1:53 PM 26.1 °F 19.4 °F 15.1 °F 63% 30.45 in 10.0 mi SE 5.8 mph - N/A   Clear
2:53 PM 27.0 °F 18.7 °F 16.0 °F 63% 30.42 in 10.0 mi ESE 8.1 mph - N/A   Clear
3:53 PM 25.0 °F 18.1 °F 15.1 °F 66% 30.40 in 10.0 mi SE 5.8 mph - N/A   Clear
4:53 PM 19.9 °F 10.1 °F 12.0 °F 71% 30.38 in 10.0 mi East 8.1 mph - N/A   Clear
5:53 PM 18.0 °F 8.7 °F 12.0 °F 78% 30.36 in 10.0 mi ENE 6.9 mph - N/A   Clear
6:53 PM 19.9 °F 11.1 °F 12.9 °F 74% 30.32 in 10.0 mi NE 6.9 mph - N/A   Clear
7:53 PM 19.0 °F 8.2 °F 12.9 °F 77% 30.28 in 10.0 mi NE 9.2 mph - N/A   Clear
8:53 PM 19.9 °F 9.3 °F 12.9 °F 74% 30.23 in 10.0 mi NE 9.2 mph - N/A   Clear
9:53 PM 19.0 °F 8.2 °F 12.0 °F 74% 30.19 in 10.0 mi NE 9.2 mph - N/A   Clear
10:53 PM 19.9 °F 13.4 °F 12.9 °F 74% 30.14 in 10.0 mi East 4.6 mph - N/A   Clear
11:53 PM 21.0 °F 13.4 °F 14.0 °F 74% 30.09 in 10.0 mi NE 5.8 mph - N/A   Clear